MSC Nuria — 3ESE2 — position and weather

sailwx.info

Track history (hours):
 
Tides and Currents Weather Stations Pressure Air Temp Water Temp Dewpoint Dewpoint Depression Visibility Wind Speed Wind Dir Waves Ship Positions

MSC Nuria

Last reported at 2016-May-03 00:33 UTC. Time now 2016-May-25 09:15 UTC.
Position N 26°17' W 079°26'.
Warning: this ship's position is 22 days out of date.

Length 275 m; draft 10 m.

Type: Ship (hazmat cat A). MMSI: 370272977.

Date/timePositionNaut miles runAvg speedWind from/ knotsBaromVisibWave heightAir tempDewpointWater temp
2016-May-03 00:33N 26°17' W 079°26'1515.2
2016-May-02 23:33N 26°13' W 079°43'1615.6
2016-May-02 22:33N 26°09' W 079°59'8 7.9
2016-May-02 21:32N 26°04' W 080°07'0 0.0
2016-May-02 20:32N 26°04' W 080°07'0 0.0
2016-May-02 19:22N 26°04' W 080°07'0 0.0
2016-May-02 18:31N 26°04' W 080°07'0 0.0
2016-May-02 17:27N 26°04' W 080°07'0 0.0
2016-May-02 16:33N 26°04' W 080°07'0 0.0
2016-May-02 15:27N 26°04' W 080°07'0 0.0
2016-May-02 14:32N 26°04' W 080°07'0 0.0
2016-May-02 13:32N 26°04' W 080°07'0 0.0
2016-May-02 12:22N 26°04' W 080°07'0 0.0
2016-May-02 11:31N 26°04' W 080°07'0 0.0
2016-May-02 10:24N 26°04' W 080°07'0 0.0
2016-May-02 09:33N 26°04' W 080°07'0 0.1
2016-May-02 08:33N 26°04' W 080°07'5 4.7
2016-May-02 07:33N 26°07' W 080°03'3 3.5
2016-May-02 06:33N 26°10' W 080°00'5 4.8
2016-May-02 05:33N 26°14' W 079°59'3 3.5
2016-May-02 04:33N 26°11' W 079°59'5 5.2
2016-May-02 03:33N 26°06' W 079°58'2 2.1
2016-May-02 02:33N 26°07' W 080°00'6 6.1
2016-May-02 01:33N 26°13' W 079°58'6 6.0
2016-May-02 00:33N 26°18' W 079°54'6 6.2
2016-May-01 23:33N 26°22' W 079°50'6 6.4
2016-May-01 22:33N 26°27' W 079°46'7 6.9
2016-May-01 21:33N 26°33' W 079°41'8 7.1
2016-May-01 20:27N 26°39' W 079°36'278 8.0
2016-Apr-30 09:33N 31°17' W 079°28'8 7.3
2016-Apr-30 08:28N 31°25' W 079°29'6 7.1
2016-Apr-30 07:34N 31°32' W 079°29'11 7.3
2016-Apr-30 06:05N 31°43' W 079°30'15 8.8
2016-Apr-30 04:22N 31°58' W 079°32'7 8.7
2016-Apr-30 03:33N 32°05' W 079°32'9 8.9
2016-Apr-30 02:33N 32°14' W 079°33'11 9.0
2016-Apr-30 01:18N 32°25' W 079°34'10 9.2
2016-Apr-30 00:11N 32°35' W 079°37'40 2.0
2016-Apr-29 04:07N 32°44' W 078°51'713.3
2016-Apr-29 03:34N 32°48' W 078°44'16113.4
2016-Apr-28 15:31N 34°20' W 076°05'33113.1
2016-Apr-27 14:13N 39°34' W 073°53'914.0
2016-Apr-27 13:33N 39°43' W 073°51'1413.9
2016-Apr-27 12:32N 39°57' W 073°50'2611.3
2016-Apr-27 10:15N 40°23' W 073°49'6 9.0
2016-Apr-27 09:34N 40°28' W 073°53'1313.3
2016-Apr-27 08:33N 40°39' W 074°04'4 4.1
2016-Apr-27 07:34N 40°41' W 074°09'1 0.8
2016-Apr-27 06:32N 40°41' W 074°09'0 0.0
2016-Apr-27 04:31N 40°41' W 074°09'0 0.0
2016-Apr-27 03:31N 40°41' W 074°09'0 0.0
2016-Apr-27 02:31N 40°41' W 074°09'0 0.0
2016-Apr-27 01:33N 40°41' W 074°09'0 0.0
2016-Apr-26 21:27N 40°41' W 074°09'0 0.0
2016-Apr-26 20:33N 40°41' W 074°09'0 0.0
2016-Apr-26 19:32N 40°41' W 074°09'0 0.0
2016-Apr-26 18:32N 40°41' W 074°09'0 0.0
2016-Apr-26 17:31N 40°41' W 074°09'0 0.0
2016-Apr-26 16:31N 40°41' W 074°09'0 0.0
2016-Apr-26 15:03N 40°41' W 074°09'0 0.0
2016-Apr-26 14:27N 40°41' W 074°09'0 0.0
2016-Apr-26 13:12N 40°41' W 074°09'0 0.0
2016-Apr-26 12:32N 40°41' W 074°09'0 0.0
2016-Apr-26 11:32N 40°41' W 074°09'0 0.0
2016-Apr-26 10:04N 40°41' W 074°09'0 0.0
2016-Apr-26 09:07N 40°41' W 074°09'0 0.0
2016-Apr-26 08:31N 40°41' W 074°09'0 0.0
2016-Apr-26 07:33N 40°41' W 074°09'3 3.1
2016-Apr-26 06:34N 40°39' W 074°07'8 7.5
2016-Apr-26 05:34N 40°32' W 074°01'1111.0
2016-Apr-26 04:33N 40°27' W 073°49'9 8.7
2016-Apr-26 03:33N 40°18' W 073°46'1311.4
2016-Apr-26 02:24N 40°05' W 073°44'1315.8
2016-Apr-26 01:33N 39°52' W 073°42'1615.8
2016-Apr-26 00:33N 39°37' W 073°47'1716.6
2016-Apr-25 23:33N 39°21' W 073°54'6310.2
2016-Apr-25 17:24N 38°46' W 075°01'8 9.3
2016-Apr-25 16:34N 38°53' W 075°05'1515.4
2016-Apr-25 15:34N 39°07' W 075°13'1413.7
2016-Apr-25 14:34N 39°18' W 075°23'1414.0
2016-Apr-25 13:34N 39°29' W 075°34'1212.4
2016-Apr-25 12:33N 39°42' W 075°31'1111.1
2016-Apr-25 11:34N 39°50' W 075°22'1010.0
2016-Apr-25 10:34N 39°53' W 075°09'1 1.4
2016-Apr-25 09:32N 39°54' W 075°08'0 0.0
2016-Apr-25 08:32N 39°54' W 075°08'0 0.0
2016-Apr-25 07:31N 39°54' W 075°08'0 0.0
2016-Apr-25 06:31N 39°54' W 075°08'0 0.0
2016-Apr-25 05:33N 39°54' W 075°08'0 0.0
2016-Apr-25 04:33N 39°54' W 075°08'0 0.0
2016-Apr-25 03:33N 39°54' W 075°08'0 0.0
2016-Apr-25 02:32N 39°54' W 075°08'0 0.0
2016-Apr-25 01:32N 39°54' W 075°08'0 0.0
2016-Apr-25 00:28N 39°54' W 075°08'0 0.0
2016-Apr-24 23:33N 39°54' W 075°08'0 0.0
2016-Apr-24 22:29N 39°54' W 075°08'0 0.0
2016-Apr-24 21:33N 39°54' W 075°08'0 0.1
2016-Apr-24 20:34N 39°54' W 075°08'7 7.4
2016-Apr-24 19:33N 39°51' W 075°17'1110.6
2016-Apr-24 18:33N 39°46' W 075°29'1211.6
2016-Apr-24 17:34N 39°35' W 075°33'1414.1
2016-Apr-24 16:33N 39°21' W 075°27'1716.7
2016-Apr-24 15:33N 39°08' W 075°14'  
Track history (hours):
 
Tides and Currents Weather Stations Pressure Air Temp Water Temp Dewpoint Dewpoint Depression Visibility Wind Speed Wind Dir Waves Ship Positions

MSC Nuria

Last reported at 2016-May-03 00:33 UTC. Time now 2016-May-25 09:15 UTC.
Position N 26°17' W 079°26'.
Warning: this ship's position is 22 days out of date.

Length 275 m; draft 10 m.

Type: Ship (hazmat cat A). MMSI: 370272977.

Date/timePositionNaut miles runAvg speedWind from/ knotsBaromVisibWave heightAir tempDewpointWater temp
2016-May-03 00:33N 26°17' W 079°26'1515.2
2016-May-02 23:33N 26°13' W 079°43'1615.6
2016-May-02 22:33N 26°09' W 079°59'8 7.9
2016-May-02 21:32N 26°04' W 080°07'0 0.0
2016-May-02 20:32N 26°04' W 080°07'0 0.0
2016-May-02 19:22N 26°04' W 080°07'0 0.0
2016-May-02 18:31N 26°04' W 080°07'0 0.0
2016-May-02 17:27N 26°04' W 080°07'0 0.0
2016-May-02 16:33N 26°04' W 080°07'0 0.0
2016-May-02 15:27N 26°04' W 080°07'0 0.0
2016-May-02 14:32N 26°04' W 080°07'0 0.0
2016-May-02 13:32N 26°04' W 080°07'0 0.0
2016-May-02 12:22N 26°04' W 080°07'0 0.0
2016-May-02 11:31N 26°04' W 080°07'0 0.0
2016-May-02 10:24N 26°04' W 080°07'0 0.0
2016-May-02 09:33N 26°04' W 080°07'0 0.1
2016-May-02 08:33N 26°04' W 080°07'5 4.7
2016-May-02 07:33N 26°07' W 080°03'3 3.5
2016-May-02 06:33N 26°10' W 080°00'5 4.8
2016-May-02 05:33N 26°14' W 079°59'3 3.5
2016-May-02 04:33N 26°11' W 079°59'5 5.2
2016-May-02 03:33N 26°06' W 079°58'2 2.1
2016-May-02 02:33N 26°07' W 080°00'6 6.1
2016-May-02 01:33N 26°13' W 079°58'6 6.0
2016-May-02 00:33N 26°18' W 079°54'6 6.2
2016-May-01 23:33N 26°22' W 079°50'6 6.4
2016-May-01 22:33N 26°27' W 079°46'7 6.9
2016-May-01 21:33N 26°33' W 079°41'8 7.1
2016-May-01 20:27N 26°39' W 079°36'278 8.0
2016-Apr-30 09:33N 31°17' W 079°28'8 7.3
2016-Apr-30 08:28N 31°25' W 079°29'6 7.1
2016-Apr-30 07:34N 31°32' W 079°29'11 7.3
2016-Apr-30 06:05N 31°43' W 079°30'15 8.8
2016-Apr-30 04:22N 31°58' W 079°32'7 8.7
2016-Apr-30 03:33N 32°05' W 079°32'9 8.9
2016-Apr-30 02:33N 32°14' W 079°33'11 9.0
2016-Apr-30 01:18N 32°25' W 079°34'10 9.2
2016-Apr-30 00:11N 32°35' W 079°37'40 2.0
2016-Apr-29 04:07N 32°44' W 078°51'713.3
2016-Apr-29 03:34N 32°48' W 078°44'16113.4
2016-Apr-28 15:31N 34°20' W 076°05'33113.1
2016-Apr-27 14:13N 39°34' W 073°53'914.0
2016-Apr-27 13:33N 39°43' W 073°51'1413.9
2016-Apr-27 12:32N 39°57' W 073°50'2611.3
2016-Apr-27 10:15N 40°23' W 073°49'6 9.0
2016-Apr-27 09:34N 40°28' W 073°53'1313.3
2016-Apr-27 08:33N 40°39' W 074°04'4 4.1
2016-Apr-27 07:34N 40°41' W 074°09'1 0.8
2016-Apr-27 06:32N 40°41' W 074°09'0 0.0
2016-Apr-27 04:31N 40°41' W 074°09'0 0.0
2016-Apr-27 03:31N 40°41' W 074°09'0 0.0
2016-Apr-27 02:31N 40°41' W 074°09'0 0.0
2016-Apr-27 01:33N 40°41' W 074°09'0 0.0
2016-Apr-26 21:27N 40°41' W 074°09'0 0.0
2016-Apr-26 20:33N 40°41' W 074°09'0 0.0
2016-Apr-26 19:32N 40°41' W 074°09'0 0.0
2016-Apr-26 18:32N 40°41' W 074°09'0 0.0
2016-Apr-26 17:31N 40°41' W 074°09'0 0.0
2016-Apr-26 16:31N 40°41' W 074°09'0 0.0
2016-Apr-26 15:03N 40°41' W 074°09'0 0.0
2016-Apr-26 14:27N 40°41' W 074°09'0 0.0
2016-Apr-26 13:12N 40°41' W 074°09'0 0.0
2016-Apr-26 12:32N 40°41' W 074°09'0 0.0
2016-Apr-26 11:32N 40°41' W 074°09'0 0.0
2016-Apr-26 10:04N 40°41' W 074°09'0 0.0
2016-Apr-26 09:07N 40°41' W 074°09'0 0.0
2016-Apr-26 08:31N 40°41' W 074°09'0 0.0
2016-Apr-26 07:33N 40°41' W 074°09'3 3.1
2016-Apr-26 06:34N 40°39' W 074°07'8 7.5
2016-Apr-26 05:34N 40°32' W 074°01'1111.0
2016-Apr-26 04:33N 40°27' W 073°49'9 8.7
2016-Apr-26 03:33N 40°18' W 073°46'1311.4
2016-Apr-26 02:24N 40°05' W 073°44'1315.8
2016-Apr-26 01:33N 39°52' W 073°42'1615.8
2016-Apr-26 00:33N 39°37' W 073°47'1716.6
2016-Apr-25 23:33N 39°21' W 073°54'6310.2
2016-Apr-25 17:24N 38°46' W 075°01'8 9.3
2016-Apr-25 16:34N 38°53' W 075°05'1515.4
2016-Apr-25 15:34N 39°07' W 075°13'1413.7
2016-Apr-25 14:34N 39°18' W 075°23'1414.0
2016-Apr-25 13:34N 39°29' W 075°34'1212.4
2016-Apr-25 12:33N 39°42' W 075°31'1111.1
2016-Apr-25 11:34N 39°50' W 075°22'1010.0
2016-Apr-25 10:34N 39°53' W 075°09'1 1.4
2016-Apr-25 09:32N 39°54' W 075°08'0 0.0
2016-Apr-25 08:32N 39°54' W 075°08'0 0.0
2016-Apr-25 07:31N 39°54' W 075°08'0 0.0
2016-Apr-25 06:31N 39°54' W 075°08'0 0.0
2016-Apr-25 05:33N 39°54' W 075°08'0 0.0
2016-Apr-25 04:33N 39°54' W 075°08'0 0.0
2016-Apr-25 03:33N 39°54' W 075°08'0 0.0
2016-Apr-25 02:32N 39°54' W 075°08'0 0.0
2016-Apr-25 01:32N 39°54' W 075°08'0 0.0
2016-Apr-25 00:28N 39°54' W 075°08'0 0.0
2016-Apr-24 23:33N 39°54' W 075°08'0 0.0
2016-Apr-24 22:29N 39°54' W 075°08'0 0.0
2016-Apr-24 21:33N 39°54' W 075°08'0 0.1
2016-Apr-24 20:34N 39°54' W 075°08'7 7.4
2016-Apr-24 19:33N 39°51' W 075°17'1110.6
2016-Apr-24 18:33N 39°46' W 075°29'1211.6
2016-Apr-24 17:34N 39°35' W 075°33'1414.1
2016-Apr-24 16:33N 39°21' W 075°27'1716.7
2016-Apr-24 15:33N 39°08' W 075°14'  

Dump ship's entire track history